This demonstration page uses our WeatherBlox Daily Observations layout. Learn more.

Left ArrowRight Arrow

44.8408, -93.29828

Hourly Observations for August 8, 2022

Temp ( °F °C ) Dew Point ( °F °C ) Humidity (%) Winds ( mph kmh ) Pressure ( in mb ) Visibility ( mi km ) Precip ( " mm )
12:09 am 00:09 Cloudy with Light Rain 61 16.1 59 15 93 93 N 12 19 30.00 1016 10 16 0.01 0.25
12:53 am 00:53 Cloudy 60 15.6 59 15 96 96 N 9 15 30.00 1016 10 16 0.01 0.25
1:15 am 01:15 Cloudy 60 15.6 58 14.4 93 93 N 10 17 29.99 1016 10 16 0.00 0.00
1:45 am 01:45 Mostly Cloudy 60 15.6 58 14.4 93 93 N 7 11 29.99 1016 10 16 0.00 0.00
1:53 am 01:53 Mostly Cloudy 60 15.6 58 14.4 93 93 NNW 10 17 29.99 1016 10 16 0.00 0.00
2:53 am 02:53 Mostly Cloudy 59 15 57 13.9 93 93 NNW 13 20 30.00 1016 10 16 0.00 0.00
3:53 am 03:53 Cloudy 59 15 56 13.3 90 90 NNW 8 13 30.01 1016 10 16 0.00 0.00
4:53 am 04:53 Cloudy 58 14.4 56 13.3 93 93 NNW 8 13 30.03 1017 10 16 0.00 0.00
5:53 am 05:53 Cloudy 57 13.9 55 12.8 93 93 NNW 10 17 30.04 1017 10 16 0.00 0.00
6:53 am 06:53 Cloudy 57 13.9 54 12.2 90 90 N 9 15 30.06 1018 10 16 0.00 0.00
7:31 am 07:31 Cloudy 58 14.4 54 12.2 87 87 VRB 7 11 30.09 1019 10 16 0.00 0.00
7:53 am 07:53 Mostly Cloudy 58 14.4 55 12.8 90 90 NW 7 11 30.09 1019 10 16 0.00 0.00
8:46 am 08:46 Mostly Cloudy 59 15 55 12.8 87 87 NNW 8 13 30.09 1019 10 16 0.00 0.00
8:53 am 08:53 Mostly Cloudy 60 15.6 55 12.8 84 84 NNW 9 15 30.09 1019 10 16 0.00 0.00
9:16 am 09:16 Mostly Cloudy 60 15.6 54 12.2 80 80 N 9 15 30.08 1019 10 16 0.00 0.00
9:53 am 09:53 Partly Cloudy 63 17.2 55 12.8 76 76 N 8 13 30.08 1019 10 16 0.00 0.00
10:53 am 10:53 Mostly Sunny 67 19.4 55 12.8 66 66 N 8 13 30.09 1019 10 16 0.00 0.00
11:53 am 11:53 Mostly Sunny 71 21.7 54 12.2 55 55 NNW 10 17 30.09 1019 10 16 0.00 0.00
12:53 pm 12:53 Partly Cloudy 72 22.2 54 12.2 53 53 N 8 13 30.09 1019 10 16 0.00 0.00
1:53 pm 13:53 Partly Cloudy 75 23.9 53 11.7 46 46 VRB 3 6 30.09 1019 10 16 0.00 0.00
2:53 pm 14:53 Partly Cloudy 75 23.9 53 11.7 46 46 VRB 5 7 30.08 1019 10 16 0.00 0.00
3:53 pm 15:53 Partly Cloudy 76 24.4 53 11.7 45 45 VRB 5 7 30.07 1018 10 16 0.00 0.00
4:53 pm 16:53 Partly Cloudy 75 23.9 53 11.7 46 46 NW 8 13 30.06 1018 10 16 0.00 0.00
5:53 pm 17:53 Mostly Sunny 77 25 53 11.7 43 43 WNW 12 19 30.05 1018 10 16 0.00 0.00
6:53 pm 18:53 Mostly Sunny 76 24.4 54 12.2 47 47 WNW 9 15 30.04 1017 10 16 0.00 0.00
7:53 pm 19:53 Partly Cloudy 73 22.8 54 12.2 51 51 NNW 9 15 30.05 1018 10 16 0.00 0.00
8:53 pm 20:53 Partly Cloudy 71 21.7 55 12.8 57 57 NNW 3 6 30.06 1018 10 16 0.00 0.00
9:53 pm 21:53 Mostly Clear 71 21.7 55 12.8 57 57 NW 5 7 30.07 1018 10 16 0.00 0.00
10:53 pm 22:53 Clear 69 20.6 56 13.3 63 63 Calm 30.07 1018 10 16 0.00 0.00
11:53 pm 23:53 Clear 69 20.6 56 13.3 63 63 SSW 3 6 30.08 1019 10 16 0.00 0.00

Powered by AerisWeather